Regional Weather Roundup
Issued by NWS Boston, MA

Current Version | Previous Version | Text Only | Print | Product List | Glossary Off
Versions: 1 2 3 4 5 6 7 8 9 10 11 12 13 14 15 16 17 18 19 20 21 22 23 24 25 26 27 28 29 30 31 32 33 34 35 36 37 38 39 40 41 42 43 44 45 46 47 48 49 50
601 ASUS41 KBOX 220810 RWRBOX REGIONAL WEATHER ROUNDUP NATIONAL WEATHER SERVICE BOSTON/NORTON MA 400 AM EDT SUN APR 22 2018 NOTE: "FAIR" INDICATES FEW OR NO CLOUDS BELOW 12,000 FEET WITH NO SIGNIFICANT WEATHER AND/OR OBSTRUCTIONS TO VISIBILITY. MAZALL-220900- EASTERN MASSACHUSETTS CITY SKY/WX TMP DP RH WIND PRES REMARKS BOSTON FAIR 44 21 40 W9 30.32S BEVERLY FAIR 36 23 59 W5 30.31R LAWRENCE FAIR 37 23 56 CALM 30.33S BEDFORD FAIR 32 25 75 CALM 30.32R BLUE HILL N/A 39 20 46 W10 30.29S NORWOOD FAIR 35 32 88 CALM 30.33S MARSHFIELD FAIR 34 30 86 W6 30.32R WCI 29 PLYMOUTH FAIR 32 29 88 CALM 30.32S TAUNTON FAIR 29 27 92 CALM 30.32S FOG NEW BEDFORD FAIR 30 29 96 CALM 30.31S $$ MAZALL-220900- CAPE COD AND THE ISLANDS CITY SKY/WX TMP DP RH WIND PRES REMARKS FALMOUTH FAIR 37 27 65 N6 30.31 HYANNIS FAIR 39 33 79 CALM 30.29S CHATHAM FAIR 38 34 85 CALM 30.31R PROVINCETOWN FAIR 41 37 86 NW7 30.31S NANTUCKET FAIR 42 36 79 N9 30.30R MARTHAS VNYRD FAIR 35 31 85 N8 30.31R WCI 29 $$ MAZALL-220900- CENTRAL AND WESTERN MASSACHUSETTS CITY SKY/WX TMP DP RH WIND PRES REMARKS WORCESTER FAIR 36 17 46 W8 30.32R WCI 30 FITCHBURG FAIR 33 26 75 NW3 30.34R ORANGE FAIR 26 23 88 CALM 30.35S SPRINGFIELD FAIR 28 24 87 CALM 30.34R WESTFIELD FAIR 32 26 78 CALM 30.35R NORTH ADAMS FAIR 26 22 84 CALM 30.37R PITTSFIELD FAIR 29 20 69 CALM 30.33S $$ RIZALL-220900- RHODE ISLAND CITY SKY/WX TMP DP RH WIND PRES REMARKS PROVIDENCE FAIR 39 26 59 CALM 30.33S NEWPORT FAIR 40 25 55 N3 30.32R SMITHFIELD FAIR 39 17 41 MISG 30.32S WESTERLY FAIR 37 25 61 CALM 30.34R $$ CTZALL-220900- CONNECTICUT CITY SKY/WX TMP DP RH WIND PRES REMARKS BRADLEY INTL FAIR 41 21 44 NW5 30.35R HARTFORD FAIR 37 27 67 SE3 30.36R BRIDGEPORT FAIR 43 20 39 NW3 30.36R DANBURY FAIR 34 23 64 CALM 30.38R GROTON FAIR 39 22 50 N5 30.33S NEW HAVEN FAIR 45 20 36 N5 30.36R CHESTER FAIR 43 18 36 NW7 30.34S MERIDEN FAIR 38 22 52 CALM 30.36R WILLIMANTIC FAIR 33 26 75 CALM 30.35R OXFORD FAIR 40 19 43 NW7 30.35S $$ MEZ002-015-021-024-NHZ003-005-008-011-012-014-VTZ005-008-220900- NORTHERN NEW ENGLAND CITY SKY/WX TMP DP RH WIND PRES REMARKS PORTLAND ME FAIR 33 24 69 W3 30.29R BANGOR ME FAIR 32 22 66 W5 30.24R WCI 27 CONCORD NH FAIR 26 21 81 CALM 30.32R MANCHESTER NH FAIR 36 24 62 CALM 30.31R NASHUA NH FAIR 31 26 82 CALM 30.33R PORTSMOUTH NH CLEAR 37 24 59 W6 30.29S WCI 32 JAFFREY NH FAIR 27 25 92 CALM 30.31S KEENE NH FAIR 24 21 88 CALM 30.35R BURLINGTON VT FAIR 31 24 75 CALM 30.35R MT. WASHINGTON PTCLDY 16 12 86 NW45G53 N/A WCI -8 $$ NYZ052-076-220900- EASTERN NEW YORK CITY SKY/WX TMP DP RH WIND PRES REMARKS ALBANY FAIR 34 19 54 CALM 30.37S NEW YORK CITY FAIR 49 22 34 NW8 30.38R $$ ANZALL-220900- MARINE OBSERVATIONS STATION/POSITION TIME TEMP WIND PRES VSBY WAVE AIR SEA DIR/SP/G HT/PER (UTC) (F) (DEG/KT/KT) (MB) (MI) (FT/S) BOSTON BUOY 0750 43 43 230/ 4/ 4 1025.3S 1/11 BUZZARDS BAY 0700 46 360/ 12/ 12 1026.9R NANTUCKET SOUND 0650 44 43 330/ 10/ 10 1025.7 1 MASS BAY-STELLWA 0704 41 42 1024.7S 1 ISLE OF SHOALS 0800 42 280/ 13/ 13 1025.5S S OF BLOCK IS 0743 42 N/A 3/ 5 $$ ......................KEY......................... SKY/WX - SKY CONDITION/PRESENT WEATHER TMP - TEMPERATURE IN FAHRENHEIT DWPT - DEWPOINT IN FAHRENHEIT RH - RELATIVE HUMIDITY IN PERCENT WIND - DIRECTION AND SPEED IN MPH PRES - MEAN SEA LEVEL PRESSURE IN INCHES OF HG WCI - WIND CHILL INDEX VSB - VISIBILITY IN MILES HX - HEAT INDEX TC - TEMPERATURE IN CELSIUS VRB - VARIABLE WIND DIRECTION N/A - NOT AVAILABLE

USA.gov is the U.S. government's official web portal to all federal, state and local government web resources and services.